Location: Darr Branch
(32.1532°N, 97.3853°W)
Time: 09:57:44
(UTC+00:00)

SJ 16-02 - Pass Details

Date: 18 November 2025
Orbit: 585 x 594 km, 75.0° (Epoch: 07 December)

Event Time Altitude Azimuth Distance (km) Brightness Sun altitude
Exits shadow 12:22:22 10° 276° (W) 1,883 3.2 -8.6°
Maximum altitude 12:23:08 11° 265° (W) 1,854 3.2 -8.5°
Drops below altitude 10° 12:24:11 10° 251° (WSW) 1,905 3.4 -8.3°
Sets 12:28:07 0° 214° (SSW) 2,796 4.6 -7.5°
